Torna al catalogo

COSMOS 2251 DEB

AttivoVLEO
NORAD 37316·DEBRIS·🇷🇺 Russia

Lanciato Jun 16, 1993 da Plesetsk Cosmodrome

Loading…

Prossimi Passaggi (prossime 24 ore)

TLE

AggiornatoSource: Space-Track

Epoca: Sep 14, 2026, 01:31 UTC

1 37316U 93036BKG 26257.06384134  .00030099  00000-0  17537-2 0  9998
2 37316  74.0146 177.7207 0028042 189.6881 170.3775 15.11538021902819

Traccia COSMOS 2251 DEB in tempo reale con AllMySat

Download on the App Store